Погода в Шаффхаузене

Швейцария     47°42′10″N   8°38′16″E
темп.,
°C
ветер,
м/с
пор.,
м/с
влажн.,
%
обл.,
%
осадки,
мм/ч
давл.,
гПа
погр.,
м
17 августа, ср
ср1723:00+17ссв11664 0.0 101111
02:00+16ссв117140 0.0 101111
05:00+16з1170100 0.0 101211
08:00+17ююв117198 0.1 101375
11:00+24в23505 0.1 1012671
14:00+28вюв2236100 0.1 10111510
17:00+29всв3333100 0.0 10081828
20:00+17з2694100 3.8 1011241
18 августа, чт
чт1823:00+16ююз2699100 10.1 1014271
02:00+16ю129997 10.6 101470
05:00+16юз1299100 0.2 101494
08:00+16зюз119888 0.8 1014124
11:00+17ююз1194100 0.4 1014215
14:00+19ююз118992 2.8 1014372
17:00+21зсз117780 3.6 1012612
20:00+18с1191100 7.3 101213
19 августа, пт
пт1923:00+17сз1194100 1.4 101314
02:00+16ссз1195100 1.9 101316
05:00+15сз1196100 0.1 101322
08:00+15зюз1295100 0.1 101488
11:00+20зюз3471100 0.1 10151007
14:00+22юз2463100 1.2 1014813
17:00+23з2458100 0.4 1014760
20:00+19зюз24749 0.4 101577
20 августа, сб
сб2023:00+16зсз229174 1.3 101720
02:00+14з119489 1.4 101811
05:00+15зюз119533 0.0 101819
08:00+16зюз11925 0.0 101966
11:00+22зюз23634 0.6 1018580
14:00+24сз225335 1.9 10181433
17:00+26з114560 0.3 10171748
20:00+20юз1171100 0.3 101811
21 августа, вс
вс2123:00+18ссз1180100 0.2 101911
02:00+17ссв0083100 0.3 101811
05:00+17ссз1184100 0.0 101811
08:00+17ссз1184100 0.0 101817
11:00+20ююв0070100 0.0 1018367
14:00+24ссв1155100 0.5 10171117
17:00+24ссв2248100 0.3 10161361
20:00+19ссв1170100 0.3 101711